Flag for Ireland Weather past 2 weeks in Letterkenny, Ireland

Now
59 °F

Cool.


Feels Like: 56 °F
Forecast: 50 / 60 °F
Wind: 17 mph from West

Location: Castlederg

Current Time: Aug 1, 2015 at 3:48:57 PM

Latest Report: Aug 1, 2015 at 3:00 PM


Visibility: 31 mi

Pressure: 29.84 "Hg

Humidity: 65%

Dew point: 47 °F

Location of LetterkennyLocation

Historic Weather in Letterkenny — Graph

°F

Letterkenny temperature yesterday

Maximum temperature yesterday: 58 °F (at 6:00 PM)
Minimum temperature yesterday: 47 °F (at 11:00 PM)
Average temperature yesterday: 54 °F

Past Weeks' High & Low Weather Summary

 TemperatureHumidityPressure
High64 °F (Jul 19, 5:00 PM)100% (Jul 24, 4:00 AM)30.13 "Hg (Jul 24, 4:00 AM)
Low41 °F (Jul 25, 5:00 AM)53% (Jul 23, 4:00 PM)29.32 "Hg (Jul 26, 6:00 PM)
Average54 °F85%29.80 "Hg
* Reported Jul 17 2:00 PM — Aug 1 2:00 PM, Letterkenny, Weather by CustomWeather, © 2015

Note: Actual official high and low records may vary slightly from our data, if they occured in-between our weather recording intervals... More about our weather records

Advertising

Letterkenny weather history for previous 24 hours

 ConditionsComfort  
Time TempWeatherWind HumidityBarometerVisibility
2:00 PM
Sat, Aug 1
60 °FCool.22 mph62%29.82 "Hg15 mi
1:00 PM58 °FCool.18 mph70%29.81 "Hg25 mi
12:00 PM59 °FCool.18 mph63%29.80 "Hg19 mi
11:00 AM57 °FCool.17 mph75%29.79 "Hg22 mi
10:00 AM56 °FCool.20 mph79%29.79 "Hg25 mi
9:00 AM55 °FCool.16 mph82%29.79 "Hg25 mi
8:00 AM52 °FCool.15 mph85%29.79 "Hg25 mi
7:00 AM46 °FCool.2 mph97%29.79 "Hg31 mi
6:00 AM44 °FQuite cool.6 mph97%29.80 "Hg28 mi
5:00 AM46 °FCool.5 mph92%29.81 "Hg25 mi
4:00 AM45 °FCool.5 mph97%29.82 "Hg28 mi
3:00 AM47 °FCool.5 mph92%29.83 "Hg28 mi
2:00 AM48 °FCool.8 mph99%29.83 "Hg28 mi
1:00 AM45 °FCool.2 mph99%29.84 "Hg11 mi
12:00 AM45 °FCool.1 mph99%29.84 "Hg9 mi
11:00 PM
Fri, Jul 31
47 °FCool.2 mph95%29.84 "Hg11 mi
10:00 PM49 °FCool.3 mph92%29.83 "Hg19 mi
9:00 PM53 °FCool.7 mph79%29.83 "Hg28 mi
8:00 PM56 °FCool.12 mph72%29.82 "Hg31 mi
7:00 PM56 °FCool.10 mph81%29.82 "Hg28 mi
6:00 PM58 °FCool.10 mph75%29.82 "Hg25 mi
5:00 PM53 °FRain. Cloudy.6 mph95%29.82 "Hg17 mi
4:00 PM54 °FRain. Cloudy.8 mph94%29.84 "Hg2 mi
3:00 PM54 °FRain. Cloudy.16 mph93%29.87 "Hg6 mi
Weather by CustomWeather, © 2015

See weather overviewHow to use our weather pages